Zurück zum Katalog

STARLINK-35129

AktivKommunikationVLEO
NORAD 66077·PAYLOAD·🇺🇸 United States

Gestartet Oct 19, 2025 von Cape Canaveral Space Force Station

Loading…

Nächste Überflüge (nächste 24 Stunden)

TLE

AktuellSource: CelesTrak SupGP

Epoche: Sep 14, 2026, 23:06 UTC

1 66077C 25235V   26257.96298611  .00034877  00000+0  10307-2 0  2575
2 66077  53.1567  83.5627 0001184  83.7666   2.4711 15.34366837    18

Verfolge STARLINK-35129 in Echtzeit mit AllMySat

Download on the App Store